OBJECT AM, 61770

Orbit data source: Space-Track

You're viewing an Uncataloged Satellite

Recently launched and/or uncataloged satellites may have evolving metadata. Metadata may include but not limited to: Owner, Maufacturer, Bus, Motor, and Mission.

OBJECT AM, 61770 is a satellite in SSO that was launched on Mon, 04 Nov 2024 UTC via a SOYUZ-2-1B launch vehicle from the Vostochny Cosmodrome (VOSTO). Unknown objects in Earth's orbit typically refer to objects detected orbiting the Earth but have not yet been identified or cataloged. These objects could be anything from previously untracked satellites, spent rocket stages, debris from satellite collisions, or even natural meteoroids temporarily captured by Earth's gravity.

Loading next visibility...
OBJECT AM details
Identifier
61770, 2024-199AM
Orbit
SSO
Last TLE update10 hours ago
Origin
Flag of TBDMGUS (TBD)
ManufacturerGeoskan
MissionOperational spacecraft
Bus & MotorCUBESAT 3U, Unknown motor
Mass3 kg wet, 3 kg dry
Launch date (UTC)
2024-11-04 (2 months ago)
Launch vehicle
SOYUZ-2-1B
Launch site
Vostochny Cosmodrome (VOSTO)
Object typeUnknown
Shape & HBRUnknown
Radar Cross SectionSmall (<0.1 m²)

Expand to show TLE details & history

TLE from 10 hours ago
0 OBJECT AM
1 61770U 24199AM  24361.57055442  .00140740  00000-0  39162-2 0  9993
2 61770  97.3618 225.9400 0019962  55.6436 304.6692 15.36072324 51745
Epoch: 2024-12-26T13:41Z
Definitive object data (Epoch: 2024-12-26T13:41:35.901Z)
Latitude-0.00013°
Longitude-75.00762°
Altitude453.105 km
Speed7.645 km/s
True Right ascension15h 03m 45s
True Declination0° 00' 00"
Sunlit
Object was in daylight at TLE epoch
Visualization TLE readout
Latitude50.02249°
Longitude-83.4225°
Altitude451.837 km
Speed7.654 km/s
Apparent Right ascension12h 28m 40s
Apparent Declination7° 57' 08"
Sunlit
Object is in daylight
Visualization observer readout
Local Sidereal Time22:40:47
Azimuth326.259° NNW
Elevation-36.031°
Doppler factor1
Orbital elements
Apogee altitude468.319 km
Perigee altitude441.04 km
Semi-major axis6,832.817 km
Eccentricity0.0019962
Inclination97.3618°
RAAN225.94°
Arg. of periapsis55.6436°
True anomaly304.4808°
Mean anomaly304.6692°
Eccentric anomaly304.57503°
Mean motion3.84276 °/min
BSTAR0.0039162
Orbital period93.68 mins
Loading maneuver chart data...
Loading historical data...
Loading historical data...
Loading historical data...
Loading historical data...
Loading historical data...
Loading historical data...
Loading historical data...

OBJECT AM Visibility forecast

Observer location: undefined°, undefined

Span
Click to sort rows by Start time (UTC) header in descending order
Start Az.
Max El. time (UTC)
Max El. Az.
Max El.
End time (UTC)
End Az.
5 mins2024-12-27 04:19:29.643Z357.578° N2024-12-27 04:21:29.643Z313.103° NW37.146°2024-12-27 04:24:29.643Z210.709° SW
4 mins2024-12-27 14:51:29.643Z127.433° SE2024-12-27 14:53:29.643Z54.768° ENE30.595°2024-12-27 14:55:29.643Z9.839° NNE
|